• In Uzbekistan
  • List of Countries
  • For 7 days
  • Water Temperature
  • Satellite Maps
  • Weather Map
  • Weather Widgets
  • user-avatar
    Login

    Hourly Weather Cerqueira Cesar

    Today, 19 October, Thursday

    Time Temperature Precipitation Wind Pressure Humidity
    00:00 +25°C° 0 mm 2 mps 698 mmHg 47%
    01:00 +25°C° 0 mm 2 mps 698 mmHg 48%
    02:00 +24°C° 0 mm 2 mps 698 mmHg 49%
    03:00 +24°C° 0 mm 2 mps 698 mmHg 50%
    04:00 +22°C° 0 mm 3 mps 698 mmHg 50%
    05:00 +22°C° 0 mm 3 mps 698 mmHg 50%
    06:00 +22°C° 0 mm 3 mps 698 mmHg 50%
    07:00 +25°C° 0 mm 4 mps 698 mmHg 45%
    08:00 +27°C° 0 mm 5 mps 699 mmHg 40%
    09:00 +29°C° 0 mm 6 mps 700 mmHg 36%
    10:00 +32°C° 0 mm 5 mps 700 mmHg 33%
    11:00 +34°C° 0 mm 5 mps 700 mmHg 30%
    12:00 +35°C° 0 mm 5 mps 700 mmHg 28%
    13:00 +36°C° 0 mm 4 mps 699 mmHg 27%
    14:00 +36°C° 0 mm 4 mps 699 mmHg 26%
    15:00 +36°C° 0 mm 3 mps 698 mmHg 26%
    16:00 +35°C° 0 mm 2 mps 698 mmHg 30%
    17:00 +32°C° 0 mm 2 mps 697 mmHg 34%
    18:00 +30°C° 0 mm 1 mps 697 mmHg 38%
    19:00 +29°C° 0 mm 2 mps 698 mmHg 40%
    20:00 +28°C° 0 mm 3 mps 698 mmHg 41%
    21:00 +28°C° 0 mm 3 mps 699 mmHg 43%
    22:00 +26°C° 0 mm 3 mps 699 mmHg 50%
    23:00 +25°C° 0 mm 3 mps 699 mmHg 58%

    Tomorrow, 20 October, Friday

    Time Temperature Precipitation Wind Pressure Humidity
    00:00 +24°C° 0 mm 3 mps 699 mmHg 65%
    01:00 +24°C° 0 mm 3 mps 698 mmHg 67%
    02:00 +24°C° 0 mm 2 mps 698 mmHg 69%
    03:00 +24°C° 0 mm 2 mps 697 mmHg 71%
    04:00 +23°C° 0 mm 2 mps 697 mmHg 72%
    05:00 +23°C° 0 mm 2 mps 697 mmHg 73%
    06:00 +23°C° 0 mm 2 mps 697 mmHg 74%
    07:00 +24°C° 0 mm 2 mps 698 mmHg 70%
    08:00 +25°C° 0 mm 3 mps 699 mmHg 66%
    09:00 +26°C° 0 mm 4 mps 699 mmHg 62%
    10:00 +28°C° 0 mm 3 mps 699 mmHg 56%
    11:00 +30°C° 0 mm 3 mps 699 mmHg 50%
    12:00 +33°C° 0 mm 3 mps 699 mmHg 44%
    13:00 +33°C° 0 mm 3 mps 699 mmHg 41%
    14:00 +34°C° 0 mm 2 mps 698 mmHg 38%
    15:00 +33°C° 0 mm 1 mps 697 mmHg 35%
    16:00 +31°C° 0.3 mm 2 mps 697 mmHg 42%
    17:00 +29°C° 0.3 mm 2 mps 697 mmHg 49%
    18:00 +27°C° 0.3 mm 3 mps 696 mmHg 56%
    19:00 +26°C° 0.3 mm 3 mps 697 mmHg 63%
    20:00 +25°C° 0.3 mm 4 mps 697 mmHg 70%
    21:00 +23°C° 0.3 mm 4 mps 697 mmHg 77%
    22:00 +22°C° 0 mm 4 mps 697 mmHg 79%
    23:00 +22°C° 0 mm 4 mps 697 mmHg 81%

    Day after tomorrow, 21 October, Saturday

    Time Temperature Precipitation Wind Pressure Humidity
    00:00 +22°C° 0 mm 4 mps 697 mmHg 84%
    01:00 +21°C° 0 mm 4 mps 697 mmHg 84%
    02:00 +21°C° 0 mm 3 mps 696 mmHg 84%
    03:00 +21°C° 0 mm 3 mps 696 mmHg 84%
    04:00 +21°C° 0 mm 3 mps 696 mmHg 81%
    05:00 +21°C° 0 mm 3 mps 696 mmHg 77%
    06:00 +21°C° 0 mm 2 mps 697 mmHg 73%
    07:00 +23°C° 0 mm 2 mps 697 mmHg 70%
    08:00 +23°C° 0 mm 2 mps 698 mmHg 66%
    09:00 +24°C° 0 mm 2 mps 698 mmHg 63%
    10:00 +27°C° 0 mm 3 mps 699 mmHg 52%
    11:00 +30°C° 0 mm 5 mps 699 mmHg 41%
    12:00 +35°C° 0 mm 7 mps 699 mmHg 30%
    13:00 +34°C° 0 mm 6 mps 699 mmHg 31%
    14:00 +34°C° 0 mm 6 mps 698 mmHg 33%
    15:00 +34°C° 0 mm 6 mps 698 mmHg 34%
    16:00 +30°C° 0.2 mm 5 mps 698 mmHg 42%
    17:00 +28°C° 0.2 mm 4 mps 698 mmHg 50%
    18:00 +26°C° 0.2 mm 3 mps 698 mmHg 58%
    19:00 +25°C° 0.1 mm 2 mps 698 mmHg 62%
    20:00 +24°C° 0.1 mm 2 mps 698 mmHg 65%
    21:00 +23°C° 0.1 mm 1 mps 698 mmHg 68%
    22:00 +23°C° 0.1 mm 1 mps 698 mmHg 69%
    23:00 +23°C° 0.1 mm 1 mps 698 mmHg 70%

    22 October, Sunday

    Time Temperature Precipitation Wind Pressure Humidity
    00:00 +21°C° 0.1 mm 2 mps 697 mmHg 72%
    01:00 +22°C° 0.5 mm 1 mps 697 mmHg 74%
    02:00 +22°C° 0.5 mm 1 mps 697 mmHg 75%
    03:00 +22°C° 0.5 mm 1 mps 697 mmHg 77%
    04:00 +22°C° 0.2 mm 1 mps 698 mmHg 79%
    05:00 +22°C° 0.2 mm 1 mps 698 mmHg 80%
    06:00 +21°C° 0.2 mm 1 mps 698 mmHg 82%
    07:00 +22°C° 0.1 mm 1 mps 699 mmHg 79%
    08:00 +23°C° 0.1 mm 1 mps 699 mmHg 77%
    09:00 +24°C° 0.1 mm 1 mps 700 mmHg 75%
    10:00 +25°C° 0.3 mm 1 mps 699 mmHg 71%
    11:00 +26°C° 0.3 mm 1 mps 699 mmHg 67%
    12:00 +27°C° 0.3 mm 2 mps 699 mmHg 63%
    13:00 +27°C° 0.1 mm 2 mps 699 mmHg 63%
    14:00 +27°C° 0.1 mm 3 mps 698 mmHg 62%
    15:00 +27°C° 0.1 mm 3 mps 698 mmHg 62%
    16:00 +26°C° 0 mm 3 mps 698 mmHg 64%
    17:00 +25°C° 0 mm 2 mps 698 mmHg 66%
    18:00 +25°C° 0 mm 2 mps 698 mmHg 68%
    19:00 +24°C° 0 mm 1 mps 698 mmHg 72%
    20:00 +23°C° 0 mm 1 mps 698 mmHg 75%
    21:00 +22°C° 0 mm 1 mps 699 mmHg 79%
    22:00 +22°C° 0.3 mm 1 mps 698 mmHg 82%
    23:00 +22°C° 0.3 mm 1 mps 698 mmHg 84%

    23 October, Monday

    Time Temperature Precipitation Wind Pressure Humidity
    00:00 +21°C° 0.3 mm 1 mps 698 mmHg 87%
    01:00 +21°C° 0.1 mm 1 mps 698 mmHg 88%
    02:00 +20°C° 0.1 mm 2 mps 697 mmHg 90%
    03:00 +19°C° 0.1 mm 2 mps 697 mmHg 91%
    04:00 +19°C° 0.1 mm 2 mps 697 mmHg 92%
    05:00 +19°C° 0.1 mm 3 mps 698 mmHg 92%
    06:00 +19°C° 0.1 mm 3 mps 698 mmHg 93%
    07:00 +19°C° 0.1 mm 3 mps 698 mmHg 89%
    08:00 +20°C° 0.1 mm 3 mps 699 mmHg 86%
    09:00 +21°C° 0.1 mm 3 mps 699 mmHg 82%
    10:00 +22°C° 0.5 mm 3 mps 699 mmHg 79%
    11:00 +22°C° 0.5 mm 3 mps 699 mmHg 77%
    12:00 +24°C° 0.5 mm 3 mps 699 mmHg 75%
    13:00 +25°C° 0.2 mm 2 mps 699 mmHg 71%
    14:00 +26°C° 0.2 mm 2 mps 698 mmHg 67%
    15:00 +27°C° 0.2 mm 2 mps 698 mmHg 63%
    16:00 +26°C° 1 mm 3 mps 698 mmHg 68%
    17:00 +24°C° 1 mm 3 mps 698 mmHg 73%
    18:00 +22°C° 1 mm 4 mps 698 mmHg 78%
    19:00 +21°C° 0.5 mm 4 mps 698 mmHg 81%
    20:00 +20°C° 0.5 mm 4 mps 698 mmHg 85%
    21:00 +19°C° 0.5 mm 4 mps 699 mmHg 88%
    22:00 +18°C° 0 mm 4 mps 698 mmHg 88%
    23:00 +18°C° 0 mm 4 mps 698 mmHg 89%

    24 October, Tuesday

    Time Temperature Precipitation Wind Pressure Humidity
    00:00 +17°C° 0 mm 4 mps 698 mmHg 90%
    01:00 +17°C° 0 mm 4 mps 698 mmHg 90%
    02:00 +17°C° 0 mm 4 mps 698 mmHg 90%
    03:00 +15°C° 0 mm 4 mps 697 mmHg 90%
    04:00 +15°C° 0 mm 4 mps 698 mmHg 90%
    05:00 +15°C° 0 mm 4 mps 698 mmHg 89%
    06:00 +15°C° 0 mm 4 mps 699 mmHg 89%
    07:00 +17°C° 0 mm 5 mps 699 mmHg 82%
    08:00 +20°C° 0 mm 5 mps 700 mmHg 76%
    09:00 +22°C° 0 mm 5 mps 700 mmHg 69%
    10:00 +25°C° 0 mm 4 mps 700 mmHg 63%
    11:00 +27°C° 0 mm 4 mps 700 mmHg 58%
    12:00 +29°C° 0 mm 4 mps 700 mmHg 53%
    13:00 +29°C° 0 mm 3 mps 700 mmHg 53%
    14:00 +29°C° 0 mm 3 mps 699 mmHg 53%
    15:00 +29°C° 0 mm 3 mps 699 mmHg 53%
    16:00 +28°C° 0 mm 3 mps 699 mmHg 57%
    17:00 +27°C° 0 mm 4 mps 699 mmHg 62%
    18:00 +26°C° 0 mm 4 mps 699 mmHg 66%
    19:00 +23°C° 0 mm 4 mps 699 mmHg 70%
    20:00 +22°C° 0 mm 5 mps 699 mmHg 75%
    21:00 +20°C° 0 mm 5 mps 699 mmHg 79%
    22:00 +19°C° 0 mm 5 mps 699 mmHg 81%
    23:00 +19°C° 0 mm 5 mps 699 mmHg 82%
    Show more